(240031) = 2001 UA93 = 2006 QC63

Discovered at Palomar on 2001-10-19 by NEAT.

Orbit

Orbit type: Main Belt

Note: WebGL enabled browser required.

epoch2024-03-31.0
epoch JD2460400.5
perihelion date2022-12-04.57473
perihelion JD2459918.07473
argument of perihelion (°)82.17364
ascending node (°)232.73856
inclination (°)4.83261
eccentricity0.1536175
perihelion distance (AU)2.6352623
Tisserand w.r.t. Jupiter3.2
ΔV w.r.t. Earth (km/sec)10.3
semimajor axis (AU)3.1135596
mean anomaly (°)86.54622
mean daily motion (°/day)0.17939820
aphelion distance (AU)3.592
period (years)5.49
P-vector [x]0.70321941
P-vector [y]-0.68099346
P-vector [z]-0.20428014
Q-vector [x]0.70780428
Q-vector [y]0.64346854
Q-vector [z]0.29148128
absolute magnitude16.07
phase slope0.15
uncertainty0
referenceMPEC 2024-C60
observations used289
oppositions15
arc length (days)8144
first opposition used2001
last opposition used2024
residual rms (arc-secs)0.75
perturbers coarse indicatorM-v
perturbers precise indicator003Ek
first observation date used2001-10-19.0
last observation date used2024-02-05.0
computer nameMPCLINUX
JD of orbit computation2456670.700867
perihelion JD uncertainty (days)1.5239E-04
argument of perihelion uncertainty (°)8.7039E-05
ascending node uncertainty (°)8.3696E-05
inclination uncertainty (°)6.4214E-06
eccentricity uncertainty 7.2593E-08
perihelion distance uncertainty (AU)2.2232E-07
Minimum Orbit Intersection Distances (in AU)
for orbit epoch: 2460200.5, reference: E2024-C60
Mercury2.21665
Venus1.91802
Earth1.62862
Mars1.26072
Jupiter1.71364
Saturn5.56396
Uranus14.927
Neptune26.6343

Observations

296 total observations over interval: 2001 10 19.32127 – 2024 02 05.104761
These data are available for download (format description).

Date (UT) J2000 RA J2000 Dec Magn Location Ref
2001 10 19.32127 01 31 28.19 +13 17 51.0 20.1   644 – Palomar Mountain/NEAT MPS 41161
2001 10 19.34374 01 31 27.11 +13 17 43.3 19.9   644 – Palomar Mountain/NEAT MPS 41161
2001 10 19.36496 01 31 26.10 +13 17 35.7 20.3   644 – Palomar Mountain/NEAT MPS 41161
2001 10 20.44252 01 30 36.58 +13 11 10.8 20.2   644 – Palomar Mountain/NEAT MPS 41161
2001 10 20.46370 01 30 35.58 +13 11 03.1 20.3   644 – Palomar Mountain/NEAT MPS 41161
2001 10 20.48493 01 30 34.64 +13 10 55.8 20.7   644 – Palomar Mountain/NEAT MPS 41161
2001 10 21.25319 01 29 59.92 +13 06 20.3 20.0   704 – Lincoln Laboratory ETS, New Mexico MPS 44511
2001 10 21.27658 01 29 58.87 +13 06 10.9 19.8   704 – Lincoln Laboratory ETS, New Mexico MPS 44511
2001 10 21.29421 01 29 57.99 +13 06 05.4 20.0   704 – Lincoln Laboratory ETS, New Mexico MPS 44511
2001 10 21.31064 01 29 57.17 +13 05 58.5 20.2   704 – Lincoln Laboratory ETS, New Mexico MPS 44511
2001 10 21.32726 01 29 56.47 +13 05 52.0 20.4   704 – Lincoln Laboratory ETS, New Mexico MPS 44511
2001 10 26.22735 01 26 18.12 +12 36 31.2 20.5 V 691 – Steward Observatory, Kitt Peak-Spacewatch MPS 41161
2001 10 26.24948 01 26 17.12 +12 36 23.3 20.9 V 691 – Steward Observatory, Kitt Peak-Spacewatch MPS 41161
2001 10 26.27147 01 26 16.12 +12 36 15.3 20.6 V 691 – Steward Observatory, Kitt Peak-Spacewatch MPS 41161
2005 04 17.42171 15 03 07.38 -18 47 06.7 20.8 V 691 – Steward Observatory, Kitt Peak-Spacewatch MPS 182418
2005 04 17.44036 15 03 06.64 -18 47 02.6 20.8 V 691 – Steward Observatory, Kitt Peak-Spacewatch MPS 182418
2005 04 17.45886 15 03 05.92 -18 46 58.0 20.8 V 691 – Steward Observatory, Kitt Peak-Spacewatch MPS 182418
2006 08 24.25973 22 14 37.26 -02 41 38.9 20.0   704 – Lincoln Laboratory ETS, New Mexico MPS 177217
2006 08 24.27119 22 14 36.76 -02 41 43.4 19.6   704 – Lincoln Laboratory ETS, New Mexico MPS 177217
2006 08 24.28293 22 14 36.22 -02 41 45.0 19.3   704 – Lincoln Laboratory ETS, New Mexico MPS 177217
2006 08 24.29459 22 14 35.74 -02 41 49.0 19.5   704 – Lincoln Laboratory ETS, New Mexico MPS 177217
2006 08 28.26731 22 11 39.94 -03 00 13.8 19.7 V 703 – Catalina Sky Survey MPS 177217
2006 08 28.27369 22 11 39.80 -03 00 16.1 19.0 V 703 – Catalina Sky Survey MPS 177217
2006 08 28.28013 22 11 39.40 -03 00 17.8 19.5 V 703 – Catalina Sky Survey MPS 177217
2006 08 28.28653 22 11 39.15 -03 00 19.4 19.1 V 703 – Catalina Sky Survey MPS 177217
2006 08 29.19384 22 10 59.55 -03 04 40.3 19.8 V 691 – Steward Observatory, Kitt Peak-Spacewatch MPS 177217
2006 08 29.21119 22 10 58.75 -03 04 45.4 20.0 V 691 – Steward Observatory, Kitt Peak-Spacewatch MPS 177217
2006 08 29.22855 22 10 57.97 -03 04 50.4 19.8 V 691 – Steward Observatory, Kitt Peak-Spacewatch MPS 177217
2006 08 30.19183 22 10 15.96 -03 09 31.1 19.1   704 – Lincoln Laboratory ETS, New Mexico MPS 177217
2006 08 30.20302 22 10 15.47 -03 09 34.9 19.9   704 – Lincoln Laboratory ETS, New Mexico MPS 177217
2006 08 30.21423 22 10 14.97 -03 09 37.3 19.6   704 – Lincoln Laboratory ETS, New Mexico MPS 177217
2006 08 30.22554 22 10 14.46 -03 09 40.5 19.5   704 – Lincoln Laboratory ETS, New Mexico MPS 177217
2006 08 30.23681 22 10 13.99 -03 09 44.0 19.5   704 – Lincoln Laboratory ETS, New Mexico MPS 177217
2006 09 14.17533 22 00 27.53 -04 24 26.0   691 – Steward Observatory, Kitt Peak-Spacewatch MPS 178671
2006 09 14.18862 22 00 27.07 -04 24 29.9   691 – Steward Observatory, Kitt Peak-Spacewatch MPS 178671
2006 09 14.20192 22 00 26.61 -04 24 34.0   691 – Steward Observatory, Kitt Peak-Spacewatch MPS 178671
2006 09 17.17680 21 58 52.20 -04 39 01.7   291 – LPL/Spacewatch II MPS 179148
2006 09 17.19027 21 58 51.76 -04 39 05.6   291 – LPL/Spacewatch II MPS 179148
2006 09 17.20378 21 58 51.34 -04 39 09.5   291 – LPL/Spacewatch II MPS 179148
2007 11 14.32669 04 29 56.17 +20 36 45.6 20.7 V 691 – Steward Observatory, Kitt Peak-Spacewatch MPS 272249
2007 11 14.34434 04 29 55.32 +20 36 42.6 20.6 V 691 – Steward Observatory, Kitt Peak-Spacewatch MPS 272249
2007 11 14.36199 04 29 54.44 +20 36 39.3 20.6 V 691 – Steward Observatory, Kitt Peak-Spacewatch MPS 272249
2009 01 01.40499 08 52 05.28 +11 18 12.7 21.3 V 691 – Steward Observatory, Kitt Peak-Spacewatch MPS 271724
2009 01 01.41557 08 52 04.86 +11 18 13.2 20.8 V 691 – Steward Observatory, Kitt Peak-Spacewatch MPS 271724
2009 01 01.42336 08 52 04.55 +11 18 13.7 21.7 V 691 – Steward Observatory, Kitt Peak-Spacewatch MPS 271724
2009 01 01.43371 08 52 04.18 +11 18 14.1 21.5 V 691 – Steward Observatory, Kitt Peak-Spacewatch MPS 271724
2009 01 01.44151 08 52 03.94 +11 18 15.1 21.4 V 691 – Steward Observatory, Kitt Peak-Spacewatch MPS 271724
2009 01 01.45184 08 52 03.53 +11 18 15.6 21.3 V 691 – Steward Observatory, Kitt Peak-Spacewatch MPS 271724
2009 01 20.34163 08 38 50.64 +11 51 33.4 21.3 V G96 – Mt. Lemmon Survey MPS 272249
2009 01 20.34488 08 38 50.56 +11 51 35.3 20.4 V G96 – Mt. Lemmon Survey MPS 272249
2009 01 20.35230 08 38 50.17 +11 51 35.1 21.4 V G96 – Mt. Lemmon Survey MPS 272249
2009 01 20.35556 08 38 50.02 +11 51 34.9 20.6 V G96 – Mt. Lemmon Survey MPS 272249
2009 01 20.36318 08 38 49.59 +11 51 37.0 21.0 V G96 – Mt. Lemmon Survey MPS 272249
2009 01 20.36639 08 38 49.45 +11 51 36.6 20.8 V G96 – Mt. Lemmon Survey MPS 272249
2009 01 20.37400 08 38 49.09 +11 51 38.3 21.0 V G96 – Mt. Lemmon Survey MPS 272249
2009 01 20.37722 08 38 48.98 +11 51 38.4 21.1 V G96 – Mt. Lemmon Survey MPS 272249
2009 02 04.21373 08 27 03.20 +12 31 45.3 21.4 V G96 – Mt. Lemmon Survey MPS 272249
2009 02 04.21976 08 27 02.91 +12 31 45.9 21.3 V G96 – Mt. Lemmon Survey MPS 272249
2009 02 04.22583 08 27 02.66 +12 31 47.5 21.6 V G96 – Mt. Lemmon Survey MPS 272249
2009 02 04.23197 08 27 02.30 +12 31 48.1 21.3 V G96 – Mt. Lemmon Survey MPS 272249
2010 03 19.23435 12 28 47.67 -08 35 46.1 20.7 V 691 – Steward Observatory, Kitt Peak-Spacewatch MPS 317827
2010 03 19.25202 12 28 46.89 -08 35 40.4 21.2 V 691 – Steward Observatory, Kitt Peak-Spacewatch MPS 317827
2010 03 19.26731 12 28 46.23 -08 35 36.5 20.9 V 691 – Steward Observatory, Kitt Peak-Spacewatch MPS 317827
2010 05 19.22027 11 58 07.17 -03 50 01.1 21.2 V G96 – Mt. Lemmon Survey MPS 327307
2010 05 19.22881 11 58 07.17 -03 49 59.9 21.3 V G96 – Mt. Lemmon Survey MPS 327307
2010 05 19.23737 11 58 07.06 -03 49 58.9 21.2 V G96 – Mt. Lemmon Survey MPS 327307
2010 05 19.24596 11 58 07.06 -03 49 57.7 21.4 V G96 – Mt. Lemmon Survey MPS 327307
2012 10 18.81657 01 37 42.42 +13 42 04.7 19.3 R B17 – AZT-8 Yevpatoriya MPS 439289
2012 10 18.83359 01 37 41.73 +13 42 01.0 18.9 R B17 – AZT-8 Yevpatoriya MPS 439289
2012 10 18.86400 01 37 40.25 +13 41 48.3 19.2 R B17 – AZT-8 Yevpatoriya MPS 439289
2012 10 18.87765 01 37 39.64 +13 41 42.9 19.2 R B17 – AZT-8 Yevpatoriya MPS 439289
2012 10 18.90685 01 37 38.18 +13 41 33.8 18.9 R B17 – AZT-8 Yevpatoriya MPS 439289
2012 10 18.92087 01 37 37.46 +13 41 28.0 19.2 R B17 – AZT-8 Yevpatoriya MPS 439289
2012 10 22.29964 01 35 02.47 +13 21 31.5 19.4 V G96 – Mt. Lemmon Survey MPS 439289
2012 10 22.30532 01 35 02.22 +13 21 29.8 19.9 V G96 – Mt. Lemmon Survey MPS 439289
2012 10 22.31675 01 35 01.68 +13 21 25.5 19.7 V G96 – Mt. Lemmon Survey MPS 439289
2012 10 22.41563 01 34 57.02 +13 20 49.8 19.5 R H15 – ISON-NM Observatory, Mayhill MPS 439289
2012 10 22.43086 01 34 56.33 +13 20 43.9 19.4 R H15 – ISON-NM Observatory, Mayhill MPS 439289
2012 10 22.44611 01 34 55.57 +13 20 39.1 20.0 R H15 – ISON-NM Observatory, Mayhill MPS 439289
2012 10 22.46148 01 34 54.83 +13 20 32.2 19.6 R H15 – ISON-NM Observatory, Mayhill MPS 439289
2012 10 22.80758 01 34 39.51 +13 18 29.1 18.9 R B17 – AZT-8 Yevpatoriya MPS 439289
2012 10 23.22272 01 34 20.67 +13 16 01.8 20.1 V G96 – Mt. Lemmon Survey MPS 439289
2012 10 23.22782 01 34 20.46 +13 16 00.2 20.1 V G96 – Mt. Lemmon Survey MPS 439289
2012 10 23.23298 01 34 20.20 +13 15 58.2 20.0 V G96 – Mt. Lemmon Survey MPS 439289
2012 10 23.23814 01 34 19.99 +13 15 56.5 20.0 V G96 – Mt. Lemmon Survey MPS 439289
2012 11 07.16835 01 24 05.79 +11 49 27.5 20.0 V G96 – Mt. Lemmon Survey MPS 441384
2012 11 07.17380 01 24 05.58 +11 49 25.7 20.0 V G96 – Mt. Lemmon Survey MPS 441384
2012 11 07.17929 01 24 05.36 +11 49 24.2 20.2 V G96 – Mt. Lemmon Survey MPS 441384
